Flag for Italy Weather past 2 weeks in Palermo, Italy

Now
75 °F

Scattered clouds.


Feels Like: 75 °F
Forecast: 70 / 83 °F
Wind: 15 mph from West

Location: Palermo / Punta Raisi

Current Time: Jul 31, 2014 at 9:38:48 AM

Latest Report: Jul 31, 2014 at 8:50 AM


Visibility: N/A

Pressure: 29.89 "Hg

Humidity: 83%

Dew point: 70 °F

Location of PalermoLocation

Historic Weather in Palermo — Graph

°F

Palermo temperature yesterday

Maximum temperature yesterday: 82 °F (at 12:50 AM)
Minimum temperature yesterday: 75 °F (at 8:20 AM)
Average temperature yesterday: 76 °F

Past Weeks' High & Low Weather Summary

 TemperatureHumidityPressure
High99 °F (Jul 26, 1:20 PM)89% (Jul 17, 7:20 AM)30.07 "Hg (Jul 17, 7:20 AM)
Low70 °F (Jul 24, 6:20 AM)18% (Jul 26, 3:20 PM)29.68 "Hg (Jul 29, 11:50 PM)
Average78 °F71%29.93 "Hg
* Reported Jul 16 8:50 AM — Jul 31 8:20 AM, Palermo, Weather by CustomWeather, © 2014

Note: Actual official high and low records may vary slightly from our data, if they occured in-between our weather recording intervals... More about our weather records

Advertising

Palermo weather history for previous 24 hours

 ConditionsComfort  
Time TempWeatherWind HumidityBarometerVisibility
8:20 AM
Jul 31
75 °FScattered clouds.15 mph83%29.86 "HgN/A
7:50 AM75 °FScattered clouds.16 mph83%29.86 "HgN/A
7:20 AM75 °FScattered clouds.16 mph78%29.86 "HgN/A
6:50 AM75 °FPassing clouds.16 mph83%29.86 "HgN/A
6:20 AM75 °FPassing clouds.17 mph78%29.86 "HgN/A
5:50 AM75 °FPassing clouds.17 mph83%29.86 "HgN/A
5:20 AM75 °FPassing clouds.18 mph78%29.86 "HgN/A
4:50 AM75 °FPassing clouds.18 mph78%29.86 "HgN/A
4:20 AM75 °FPassing clouds.20 mph78%29.86 "HgN/A
3:50 AM75 °FPassing clouds.20 mph83%29.86 "HgN/A
3:20 AM75 °FPassing clouds.18 mph83%29.86 "HgN/A
2:50 AM75 °FPassing clouds.20 mph83%29.86 "HgN/A
2:20 AM75 °FPassing clouds.20 mph83%29.86 "HgN/A
1:50 AM75 °FPassing clouds.20 mph83%29.86 "HgN/A
1:20 AM75 °FPassing clouds.21 mph78%29.86 "HgN/A
12:50 AM75 °FPassing clouds.21 mph83%29.89 "HgN/A
12:20 AM75 °FPassing clouds.22 mph83%29.89 "HgN/A
11:50 PM
Jul 30
75 °FPassing clouds.23 mph83%29.89 "HgN/A
11:20 PM77 °FPassing clouds.18 mph74%29.89 "HgN/A
10:50 PM75 °FPassing clouds.14 mph74%29.89 "HgN/A
10:20 PM75 °FPassing clouds.14 mph74%29.89 "HgN/A
9:50 PM75 °FPassing clouds.15 mph78%29.89 "HgN/A
9:20 PM75 °FPassing clouds.15 mph74%29.89 "HgN/A
8:50 PM75 °FPassing clouds.13 mph78%29.86 "HgN/A
8:20 PM75 °FPassing clouds.13 mph74%29.86 "HgN/A
7:50 PM75 °FScattered clouds.13 mph74%29.86 "HgN/A
7:20 PM75 °FScattered clouds.14 mph74%29.86 "HgN/A
6:50 PM75 °FScattered clouds.15 mph74%29.86 "HgN/A
6:20 PM75 °FScattered clouds.13 mph74%29.86 "HgN/A
5:50 PM75 °FPassing clouds.14 mph74%29.86 "HgN/A
5:20 PM77 °FPassing clouds.16 mph65%29.86 "HgN/A
4:50 PM75 °FPassing clouds.16 mph69%29.89 "HgN/A
4:20 PM75 °FPassing clouds.16 mph69%29.89 "HgN/A
3:20 PM77 °FPassing clouds.17 mph69%29.89 "HgN/A
2:50 PM75 °FPassing clouds.20 mph74%29.86 "HgN/A
2:20 PM75 °FPassing clouds.20 mph69%29.86 "HgN/A
1:50 PM75 °FPassing clouds.16 mph74%29.89 "HgN/A
1:20 PM75 °FPassing clouds.17 mph74%29.89 "HgN/A
12:50 PM75 °FPassing clouds.20 mph69%29.89 "HgN/A
12:20 PM75 °FPassing clouds.16 mph69%29.89 "HgN/A
11:50 AM75 °FPassing clouds.22 mph69%29.86 "HgN/A
11:20 AM75 °FPassing clouds.21 mph69%29.86 "HgN/A
10:50 AM75 °FScattered clouds.22 mph69%29.86 "HgN/A
10:20 AM75 °FScattered clouds.22 mph69%29.86 "HgN/A
9:50 AM75 °FScattered clouds.23 mph74%29.86 "HgN/A
9:20 AM75 °FScattered clouds.23 mph78%29.83 "HgN/A
Weather by CustomWeather, © 2014

See weather overviewHow to use our weather pages